Location: Mentone
(34.5413°N, 85.5351°W)
Time: 15:01:44
(UTC-05:00)

AO-Echo - Visible Passes

Search period start: 24 July 2014 00:00
Search period end: 03 August 2014 00:00
Orbit: 695 x 812 km, 98.3° (Epoch: 23 July)

Date Brightness Start Highest point End Pass type
(mag) Time Alt. Az. Time Alt. Az. Time Alt. Az.
24 Jul ? 02:12:44 10° NE 02:16:38 30° E 02:16:38 30° E visible
24 Jul ? 03:51:43 10° NNW 03:55:50 25° WNW 03:56:35 24° W visible
25 Jul ? 01:35:07 10° ENE 01:36:01 11° E 01:36:01 11° E visible
25 Jul ? 03:10:59 10° N 03:15:58 63° WNW 03:15:58 63° WNW visible
26 Jul ? 02:31:03 10° NNE 02:35:21 46° ENE 02:35:21 46° ENE visible
26 Jul ? 04:11:10 10° NNW 04:14:15 16° WNW 04:15:18 16° W visible
27 Jul ? 01:52:10 10° NE 01:54:43 18° E 01:54:43 18° E visible
27 Jul ? 03:29:52 10° N 03:34:35 40° WNW 03:34:41 40° WNW visible
28 Jul ? 02:49:34 10° NNE 02:54:03 68° NE 02:54:03 68° NE visible
28 Jul ? 04:31:57 10° NW 04:32:37 10° WNW 04:33:18 10° WNW visible
29 Jul ? 02:10:06 10° NE 02:13:26 27° ENE 02:13:26 27° ENE visible
29 Jul ? 03:48:57 10° NNW 03:53:03 26° WNW 03:53:23 26° WNW visible
30 Jul ? 03:08:15 10° N 03:12:45 62° NW 03:12:45 62° NW visible
31 Jul ? 02:28:22 10° NNE 02:32:07 40° ENE 02:32:07 40° ENE visible
31 Jul ? 04:08:21 10° NNW 04:11:29 17° WNW 04:12:05 17° WNW visible
01 Aug ? 01:49:36 10° NE 01:51:29 16° ENE 01:51:29 16° ENE visible
01 Aug ? 03:27:06 10° N 03:31:27 41° WNW 03:31:27 41° WNW visible
02 Aug ? 02:46:50 10° NNE 02:50:49 55° NE 02:50:49 55° NE visible
02 Aug ? 04:28:50 10° NW 04:29:51 11° WNW 04:30:46 10° WNW visible
